Regional Weather Roundup
Issued by NWS

Home | Current Version | Previous Version | Text Only | Print | Product List | Glossary On
Versions: 1 2 3 4 5 6 7 8 9 10 11 12 13 14 15 16 17 18 19 20 21 22 23 24 25 26 27 28 29 30 31 32 33 34 35 36 37 38 39 40 41 42 43 44 45 46 47 48 49 50
000
ASUS43 KLSX 282007
RWRMO

WEATHER SUMMARY FOR MISSOURI
NATIONAL WEATHER SERVICE SPRINGFIELD MO
300 PM CDT FRI AUG 28 2015

NOTE: "FAIR" INDICATES FEW OR NO CLOUDS BELOW 12,000 FEET WITH NO
       SIGNIFICANT WEATHER AND/OR OBSTRUCTIONS TO VISIBILITY.
       CURRENT SKY AND/OR WEATHER CONDITIONS ARE NOT AVAILABLE FOR
       CHILLICOTHE AND FARMINGTON.

MOZ001>031-035>038-043-044-053-054-282100-
...NORTHERN AND WESTERN MISSOURI...

CITY           SKY/WX    TMP DP  RH WIND       PRES   REMARKS
KANSAS CTY INT CLOUDY    78  65  63 S15       29.90F
KANSAS C DTWN  PTSUNNY   80  66  62 S18G24    29.91F
LEE`S SUMMIT   PTSUNNY   78  65  63 S14G23    29.94F
ST JOSEPH      PTSUNNY   80  68  66 S14       29.89S
CHILLICOTHE      N/A     78  66  66 S12G21    29.93F
KIRKSVILLE     CLOUDY    73  62  68 S13       29.99F

$$
MOZ066>068-077>081-088>096-101>105-282100-
...SOUTHWEST MISSOURI...

CITY           SKY/WX    TMP DP  RH WIND       PRES   REMARKS
SPRINGFIELD    CLOUDY    76  62  62 S9        30.04S
JOPLIN         CLOUDY    78  66  66 S13       29.99F

$$
MOZ032>034-039>042-045>050-055>058-069>072-282100-
...CENTRAL MISSOURI...

CITY           SKY/WX    TMP DP  RH WIND       PRES   REMARKS
COLUMBIA       CLOUDY    79  64  60 SE13      30.02F
JEFFERSON CITY CLOUDY    81  61  50 SE12      30.01F
ROLLA          CLOUDY    79  62  56 SW12      30.05S
SEDALIA        CLOUDY    78  66  66 S13       30.01F
WHITEMAN AFB   LGT RAIN  76  66  70 S14       29.97F
WARRENSBURG    LGT RAIN  73  64  73 SE10G20   29.95F
OSAGE BEACH    CLOUDY    81  63  54 S8        30.04S

$$
MOZ051-052-059>065-282100-
...EAST CENTRAL MISSOURI...

CITY           SKY/WX    TMP DP  RH WIND       PRES   REMARKS
ST LOUIS INTL  CLOUDY    81  59  47 SE14G22   30.07F
SPIRIT OF STL  PTSUNNY   79  63  57 SE7       30.05F
ST CHARLES     CLOUDY    81  63  54 S14       30.05F

$$
MOZ072>076-082>087-097>100-106>115-282100-
...SOUTH CENTRAL AND SOUTHEAST MISSOURI...

CITY           SKY/WX    TMP DP  RH WIND       PRES   REMARKS
CAPE GIRARDEAU PTSUNNY   83  59  44 SE7       30.05F
FARMINGTON     MOSUNNY   81  61  50 SE13      30.10F
POPLAR BLUFF   MOSUNNY   83  60  45 S9        30.05F
WEST PLAINS    MOSUNNY   79  58  48 S7        30.08F

$$



USA.gov is the U.S. government's official web portal to all federal, state and local government web resources and services.